Back to catalog

COSMOS 252 DEB

AliveLEO
NORAD 3561·DEBRIS·🇷🇺 Russia

Launched Nov 1, 1968 from Baikonur Cosmodrome

Loading…

Next Passes (next 24 hours)

TLE

FreshSource: Space-Track

Epoch: Sep 14, 2026, 14:31 UTC

1 03561U 68097P   26257.60539491  .00003053  00000-0  46149-3 0  9992
2 03561  62.2643 110.0322 0366909 343.1705  15.7438 14.39747035854092

Track COSMOS 252 DEB in real time with AllMySat

Download on the App Store